SPOOQY-1 (44332 NORAD) Tracking and Keplerian Element Data

This shows tracking and keplerian element data for the satellite.

Feedback or suggestion? Click here.




ElementValue
Catalog44332
NameSPOOQY-1
Epoch Orbit520
Epoch Day201.84117014
Epoch Year2019
RAAN194.0299
Inclination51.6397
Eccentricity0.0005593
Argument of Perigee202.6534
Mean Anonmoly157.421
Mean Motion15.52352384
Decay Rate3.69E-05
L11 44332U 98067QH 19201.84117014 .00003690 00000-0 66973-4 0 9998
L22 44332 51.6397 194.0299 0005593 202.6534 157.4210 15.52352384 5202

Live tracking and technical data element details for SPOOQY-1 (NORAD 44332). SPOOQY-1 can be tracked NOW for your location showing map with azimuth and elevation plus other details from your city location.

Track the satellite on the map from your city or location and see movement details for azimuth, elevation, latitude, longitude, range, height, and movement on the map or in text.







IsCatalogInMostPopularTable: catalog: 44332, numindb: 8
Update: records affected: 1



GetName: 44332 SPOOQY-1

Hit Count: updated at: Sun, 21 Jul 2019 21:36:36 GMT